Time,TemperatureF,DewpointF,PressureIn,WindDirection,WindDirectionDegrees,WindSpeedMPH,WindSpeedGustMPH,Humidity,HourlyPrecipIn,Conditions,Clouds,dailyrainin,SoftwareType,DateUTC
2013-07-03 00:01:00,57.0,52.0,-100.00,NW,310,0.0,0.0,83,0.00,,,-99.99,,2013-07-03 05:01:00,
2013-07-03 00:10:00,58.0,49.0,-100.00,North,0,0.0,0.0,73,0.00,,,-99.99,,2013-07-03 05:10:00,
2013-07-03 00:40:00,58.0,49.0,-100.00,North,0,0.0,0.0,73,0.00,,,-99.99,,2013-07-03 05:40:00,
2013-07-03 00:48:00,58.0,49.0,-100.00,North,0,0.0,0.0,73,0.00,,,-99.99,,2013-07-03 05:48:00,
2013-07-03 01:01:00,58.0,49.0,-100.00,North,0,0.0,0.0,73,0.00,,,-99.99,,2013-07-03 06:01:00,
2013-07-03 01:06:00,58.0,49.0,-100.00,North,0,0.0,0.0,73,0.00,,,-99.99,,2013-07-03 06:06:00,
2013-07-03 01:10:00,56.0,49.0,-100.00,WNW,290,0.0,0.0,79,0.00,,,-99.99,,2013-07-03 06:10:00,
2013-07-03 01:50:00,56.0,49.0,-100.00,WNW,290,0.0,0.0,79,0.00,,,-99.99,,2013-07-03 06:50:00,
2013-07-03 01:58:00,56.0,49.0,-100.00,WNW,290,0.0,0.0,79,0.00,,,-99.99,,2013-07-03 06:58:00,
2013-07-03 02:05:00,56.0,49.0,-100.00,WNW,290,0.0,0.0,79,0.00,,,-99.99,,2013-07-03 07:05:00,
2013-07-03 02:10:00,56.0,50.0,-100.00,West,265,0.0,0.0,80,0.00,,,-99.99,,2013-07-03 07:10:00,
2013-07-03 02:48:00,56.0,50.0,-100.00,West,265,0.0,0.0,80,0.00,,,-99.99,,2013-07-03 07:48:00,
2013-07-03 03:08:00,56.0,50.0,-100.00,West,265,0.0,0.0,80,0.00,,,-99.99,,2013-07-03 08:08:00,
2013-07-03 03:38:00,56.0,49.0,-100.00,East,80,0.0,0.0,79,0.00,,,-99.99,,2013-07-03 08:38:00,
2013-07-03 03:47:00,56.0,49.0,-100.00,East,80,0.0,0.0,79,0.00,,,-99.99,,2013-07-03 08:47:00,
2013-07-03 03:57:00,56.0,49.0,-100.00,East,80,0.0,0.0,79,0.00,,,-99.99,,2013-07-03 08:57:00,
2013-07-03 04:05:00,56.0,49.0,-100.00,East,80,0.0,0.0,79,0.00,,,-99.99,,2013-07-03 09:05:00,
2013-07-03 04:47:00,52.0,50.0,-100.00,NW,320,0.0,0.0,92,0.00,,,-99.99,,2013-07-03 09:47:00,
2013-07-03 04:57:00,52.0,50.0,-100.00,NW,320,0.0,0.0,92,0.00,,,-99.99,,2013-07-03 09:57:00,
2013-07-03 05:05:00,52.0,50.0,-100.00,NW,320,0.0,0.0,92,0.00,,,-99.99,,2013-07-03 10:05:00,
2013-07-03 05:10:00,52.0,50.0,-100.00,WNW,285,0.0,0.0,95,0.00,,,-99.99,,2013-07-03 10:10:00,
2013-07-03 05:37:00,52.0,50.0,-100.00,WNW,285,0.0,0.0,95,0.00,,,-99.99,,2013-07-03 10:37:00,
2013-07-03 05:46:00,52.0,50.0,-100.00,WNW,285,0.0,0.0,95,0.00,,,-99.99,,2013-07-03 10:46:00,
2013-07-03 06:06:00,52.0,50.0,-100.00,WNW,285,0.0,0.0,95,0.00,,,-99.99,,2013-07-03 11:06:00,
2013-07-03 06:39:00,53.0,52.0,-100.00,NW,315,0.0,0.0,97,0.00,,,-99.99,,2013-07-03 11:39:00,
2013-07-03 06:45:00,53.0,52.0,-100.00,NW,315,0.0,0.0,97,0.00,,,-99.99,,2013-07-03 11:45:00,
2013-07-03 06:58:00,53.0,52.0,-100.00,NW,315,0.0,0.0,97,0.00,,,-99.99,,2013-07-03 11:58:00,
2013-07-03 07:08:00,53.0,52.0,-100.00,NW,315,0.0,0.0,97,0.00,,,-99.99,,2013-07-03 12:08:00,
2013-07-03 07:38:00,54.0,53.0,-100.00,ESE,120,0.0,0.0,96,0.00,,,-99.99,,2013-07-03 12:38:00,
2013-07-03 07:46:00,54.0,53.0,-100.00,ESE,120,0.0,0.0,96,0.00,,,-99.99,,2013-07-03 12:46:00,
2013-07-03 07:58:00,54.0,53.0,-100.00,ESE,120,0.0,0.0,96,0.00,,,-99.99,,2013-07-03 12:58:00,
2013-07-03 08:07:00,54.0,53.0,-100.00,ESE,120,0.0,0.0,96,0.00,,,-99.99,,2013-07-03 13:07:00,
2013-07-03 08:11:00,64.0,55.0,-100.00,ENE,60,0.0,0.0,72,0.00,,,-99.99,,2013-07-03 13:11:00,
2013-07-03 08:48:00,64.0,55.0,-100.00,ENE,60,0.0,0.0,72,0.00,,,-99.99,,2013-07-03 13:48:00,
2013-07-03 08:55:00,64.0,55.0,-100.00,ENE,60,0.0,0.0,72,0.00,,,-99.99,,2013-07-03 13:55:00,
2013-07-03 09:06:00,64.0,55.0,-100.00,ENE,60,0.0,0.0,72,0.00,,,-99.99,,2013-07-03 14:06:00,
2013-07-03 09:11:00,64.0,57.0,-100.00,NNE,15,0.0,0.0,79,0.00,,,-99.99,,2013-07-03 14:11:00,
2013-07-03 09:47:00,64.0,57.0,-100.00,NNE,15,0.0,0.0,79,0.00,,,-99.99,,2013-07-03 14:47:00,
2013-07-03 10:05:00,64.0,57.0,-100.00,NNE,15,0.0,0.0,79,0.00,,,-99.99,,2013-07-03 15:05:00,
2013-07-03 10:10:00,64.0,51.0,-100.00,SE,130,0.0,0.0,63,0.00,,,-99.99,,2013-07-03 15:10:00,
2013-07-03 10:38:00,64.0,51.0,-100.00,SE,130,0.0,0.0,63,0.00,,,-99.99,,2013-07-03 15:38:00,
2013-07-03 10:48:00,64.0,51.0,-100.00,SE,130,0.0,0.0,63,0.00,,,-99.99,,2013-07-03 15:48:00,
2013-07-03 10:57:00,64.0,51.0,-100.00,SE,130,0.0,0.0,63,0.00,,,-99.99,,2013-07-03 15:57:00,
2013-07-03 11:07:00,64.0,51.0,-100.00,SE,130,0.0,0.0,63,0.00,,,-99.99,,2013-07-03 16:07:00,
2013-07-03 11:40:00,69.0,51.0,-100.00,ESE,120,0.0,0.0,51,0.00,,,-99.99,,2013-07-03 16:40:00,
2013-07-03 11:47:00,69.0,51.0,-100.00,ESE,120,0.0,0.0,51,0.00,,,-99.99,,2013-07-03 16:47:00,
2013-07-03 12:00:00,69.0,51.0,-100.00,ESE,120,0.0,0.0,51,0.00,,,-99.99,,2013-07-03 17:00:00,
2013-07-03 12:10:00,73.0,42.0,-100.00,NE,40,0.0,0.0,33,0.00,,,-99.99,,2013-07-03 17:10:00,
2013-07-03 12:42:00,73.0,42.0,-100.00,NE,40,0.0,0.0,33,0.00,,,-99.99,,2013-07-03 17:42:00,
2013-07-03 12:49:00,73.0,42.0,-100.00,NE,40,0.0,0.0,33,0.00,,,-99.99,,2013-07-03 17:49:00,
2013-07-03 12:56:00,73.0,42.0,-100.00,NE,40,0.0,0.0,33,0.00,,,-99.99,,2013-07-03 17:56:00,
2013-07-03 13:07:00,73.0,42.0,-100.00,NE,40,0.0,0.0,33,0.00,,,-99.99,,2013-07-03 18:07:00,
2013-07-03 13:46:00,73.0,45.0,-100.00,SSE,155,0.0,0.0,36,0.00,,,-99.99,,2013-07-03 18:46:00,
2013-07-03 13:59:00,73.0,45.0,-100.00,SSE,155,0.0,0.0,36,0.00,,,-99.99,,2013-07-03 18:59:00,
2013-07-03 14:04:00,73.0,45.0,-100.00,SSE,155,0.0,0.0,36,0.00,,,-99.99,,2013-07-03 19:04:00,
2013-07-03 14:10:00,74.0,45.0,-100.00,NE,40,0.0,0.0,37,0.00,,,-99.99,,2013-07-03 19:10:00,
2013-07-03 14:38:00,74.0,45.0,-100.00,NE,40,0.0,0.0,37,0.00,,,-99.99,,2013-07-03 19:38:00,
2013-07-03 14:49:00,74.0,45.0,-100.00,NE,40,0.0,0.0,37,0.00,,,-99.99,,2013-07-03 19:49:00,
2013-07-03 14:57:00,74.0,45.0,-100.00,NE,40,0.0,0.0,37,0.00,,,-99.99,,2013-07-03 19:57:00,
2013-07-03 15:04:00,74.0,45.0,-100.00,NE,40,0.0,0.0,37,0.00,,,-99.99,,2013-07-03 20:04:00,
2013-07-03 15:11:00,74.0,45.0,-100.00,ESE,120,0.0,0.0,36,0.00,,,-99.99,,2013-07-03 20:11:00,
2013-07-03 15:38:00,74.0,45.0,-100.00,ESE,120,0.0,0.0,36,0.00,,,-99.99,,2013-07-03 20:38:00,
2013-07-03 15:46:00,74.0,45.0,-100.00,ESE,120,0.0,0.0,36,0.00,,,-99.99,,2013-07-03 20:46:00,
2013-07-03 15:56:00,74.0,45.0,-100.00,ESE,120,0.0,0.0,36,0.00,,,-99.99,,2013-07-03 20:56:00,
2013-07-03 16:06:00,74.0,45.0,-100.00,ESE,120,0.0,0.0,36,0.00,,,-99.99,,2013-07-03 21:06:00,
2013-07-03 16:45:00,73.0,47.0,-100.00,ESE,105,0.0,0.0,40,0.00,,,-99.99,,2013-07-03 21:45:00,
2013-07-03 16:55:00,73.0,47.0,-100.00,ESE,105,0.0,0.0,40,0.00,,,-99.99,,2013-07-03 21:55:00,
2013-07-03 17:05:00,73.0,47.0,-100.00,ESE,105,0.0,0.0,40,0.00,,,-99.99,,2013-07-03 22:05:00,
2013-07-03 17:38:00,72.0,55.0,-100.00,SSE,165,0.0,0.0,54,0.00,,,-99.99,,2013-07-03 22:38:00,
2013-07-03 17:46:00,72.0,55.0,-100.00,SSE,165,0.0,0.0,54,0.00,,,-99.99,,2013-07-03 22:46:00,
2013-07-03 17:57:00,72.0,55.0,-100.00,SSE,165,0.0,0.0,54,0.00,,,-99.99,,2013-07-03 22:57:00,
2013-07-03 18:40:00,71.0,58.0,-100.00,East,95,0.0,0.0,64,0.00,,,-99.99,,2013-07-03 23:40:00,
2013-07-03 18:46:00,71.0,58.0,-100.00,East,95,0.0,0.0,64,0.00,,,-99.99,,2013-07-03 23:46:00,
2013-07-03 18:56:00,71.0,58.0,-100.00,East,95,0.0,0.0,64,0.00,,,-99.99,,2013-07-03 23:56:00,
2013-07-03 19:03:00,71.0,58.0,-100.00,East,95,0.0,0.0,64,0.00,,,-99.99,,2013-07-04 00:03:00,
2013-07-03 19:57:00,71.0,58.0,-100.00,SE,130,0.0,0.0,65,0.00,,,-99.99,,2013-07-04 00:57:00,
2013-07-03 20:03:00,71.0,58.0,-100.00,SE,130,0.0,0.0,65,0.00,,,-99.99,,2013-07-04 01:03:00,
2013-07-03 20:40:00,69.0,59.0,-100.00,South,175,0.0,0.0,71,0.00,,,-99.99,,2013-07-04 01:40:00,
2013-07-03 20:56:00,69.0,59.0,-100.00,South,175,0.0,0.0,71,0.00,,,-99.99,,2013-07-04 01:56:00,
2013-07-03 21:49:00,66.0,59.0,-100.00,SSW,195,0.0,0.0,79,0.00,,,-99.99,,2013-07-04 02:49:00,
2013-07-03 21:57:00,66.0,59.0,-100.00,SSW,195,0.0,0.0,79,0.00,,,-99.99,,2013-07-04 02:57:00,
2013-07-03 22:10:00,64.0,60.0,-100.00,West,280,0.0,0.0,86,0.00,,,-99.99,,2013-07-04 03:10:00,
2013-07-03 22:36:00,64.0,60.0,-100.00,West,280,0.0,0.0,86,0.00,,,-99.99,,2013-07-04 03:36:00,
2013-07-03 22:46:00,64.0,60.0,-100.00,West,280,0.0,0.0,86,0.00,,,-99.99,,2013-07-04 03:46:00,
2013-07-03 22:57:00,64.0,60.0,-100.00,West,280,0.0,0.0,86,0.00,,,-99.99,,2013-07-04 03:57:00,
2013-07-03 23:02:00,64.0,60.0,-100.00,West,280,0.0,0.0,86,0.00,,,-99.99,,2013-07-04 04:02:00,
2013-07-03 23:33:00,64.0,60.0,-100.00,NW,305,0.0,0.0,87,0.00,,,-99.99,,2013-07-04 04:33:00,
2013-07-03 23:43:00,64.0,60.0,-100.00,NW,305,0.0,0.0,87,0.00,,,-99.99,,2013-07-04 04:43:00,
2013-07-03 23:52:00,64.0,60.0,-100.00,NW,305,0.0,0.0,87,0.00,,,-99.99,,2013-07-04 04:52:00,